Showing default

COSMOS 81, 1571

Orbit data source: Space-Track

COSMOS 81, 1571 is a payload satellite owned by OKB-10 (CIS) in LEO that was launched on Fri, 03 Sep 1965 UTC via a KOSMOS 65S3 launch vehicle from the Tyuratam Missile And Space Complex (TTMTR). Payload-class satellites include a variety of spacecraft equipped with specific instruments for various scientific and technological missions. These include communications satellites like Starlink; space stations such as the ISS; scientific satellites like the Hubble; Earth observation satellites from companies like Planet Labs, Umbra, and HawkEye 360; GPS; miniature CubeSats for education and research; and military/defense satellites.

Loading next visibility...
Identifier
1571, 1965-070B
Orbit
LEO
Country
Flag of CISCIS
Related business
Manufacturer
OKB-10
Mission
Spacecraft
Bus & Motor
STRELA-1 11F610, Unknown motor
Mass
50 kg wet, 50 kg dry
Launch date (UTC)
1965-09-03 (61 years ago)
Launch vehicle
KOSMOS 65S3
Launch site
Tyuratam Missile And Space Complex (TTMTR)
Object type
Payload
Rocket body
Debris
Shape & HBR
POLY, 0.4 m
Radar Cross Section
Medium (>0.1 m² and <1 m²)

Expand to show TLE details & history
Last TLE update: 10 hours ago

TLE from 10 hours ago
0 COSMOS 81
1 01571U 65070B   26207.44890602 -.00000093  00000-0  16923-4 0  9990
2 01571  56.0601  95.6877 0088951 140.3627  30.5843 12.48868497777528
Epoch: 2026-07-26T10:46Z
TLE epoch observation values (Epoch: 2026-07-26T10:46:25.480Z)
Latitude
7.03153°
Longitude
165.19699°
Altitude
1,409.721 km
Speed
7.184 km/s
True Right ascension
18h 03m 47s
True Declination
6° 59' 36"
Sunlit
Object was in full shadow at epoch
Visualization orbit readout
Latitude
Unknown
Longitude
Unknown
Altitude
Unknown
Speed
Unknown
Apparent Right ascension
Unknown
Apparent Declination
Unknown
Sunlit
N/A
Visualization observer readout
Local Sidereal Time
09:57:18
Azimuth
Unknown
Elevation
Unknown
Doppler factor
Unknown
Orbital elements
Apogee altitude
1,538.856 km
Perigee altitude
1,399.253 km
Semi-major axis
7,847.191 km
Eccentricity
0.0089
Inclination
56.0601°
RAAN
95.6877°
Arg. of periapsis
140.3627°
True anomaly
31.10793°
Mean anomaly
30.5843°
Eccentric anomaly
30.84561°
Mean motion
3.12228 °/min
Orbital period
115.3 mins
BSTAR
0.000016923
Loading maneuver chart data...
Computing Atmospheric mass density...
Loading historical data...
Loading historical data...
Loading historical data...
Loading historical data...
Loading historical data...
Loading historical data...
Loading historical data...
Other satellites on launch #70 in the year 1965 (1965-09-03 UTC)

Documentation

Showing up to 5 results
|